Regional Weather Roundup
Issued by NWS Portland, ME

Current Version | Previous Version | Text Only | Print | Product List | Glossary Off
Versions: 1 2 3 4 5 6 7 8 9 10 11 12 13 14 15 16 17 18 19 20 21 22 23 24 25 26 27 28 29 30 31 32 33 34 35 36 37 38 39 40 41 42 43 44 45 46 47 48 49 50
000 ASUS41 KGYX 212110 RWRGYX WEATHER ROUNDUP FOR MAINE AND NEW HAMPSHIRE NATIONAL WEATHER SERVICE GRAY ME 500 PM EDT FRI SEP 21 2018 MEZ002-005-006-010-012-015-018-020-021-024-026-027-029-212200- MAINE CITY SKY/WX TMP DP RH WIND PRES REMARKS PORTLAND CLOUDY 62 57 83 S12G23 30.05F SANFORD CLOUDY 63 57 81 S6 30.05F BAR HARBOR CLOUDY 60 53 77 S20G25 30.09F WISCASSET CLOUDY 62 55 77 VRB6 30.08F ROCKLAND CLOUDY 61 55 81 S12 30.09F FRYEBURG CLOUDY 59 54 83 S3 30.03F LEWISTONAUBURN CLOUDY 61 54 77 S9 30.03F AUGUSTA CLOUDY 60 53 77 S13G22 30.03F WATERVILLE CLOUDY 60 53 77 S8 30.00F BANGOR CLOUDY 57 54 89 S13 30.04F GREENVILLE N/A 52 51 97 S9G18 29.94F MILLINOCKET LGT RAIN 51 49 92 S10G16 30.01F HOULTON LGT RAIN 54 45 71 S10G29 29.98F PRESQUE ISLE LGT RAIN 53 48 83 S21G32 29.91F FRENCHVILLE CLOUDY 53 48 83 S18G36 29.83F CARIBOU LGT RAIN 53 48 83 S21G30 29.88F $$ NHZ002-005-008-009-011-012-014-212200- NEW HAMPSHIRE CITY SKY/WX TMP DP RH WIND PRES REMARKS PORTSMOUTH CLOUDY 65 57 73 S13 30.03F ROCHESTER CLOUDY 64 58 80 S6 30.04F NASHUA CLOUDY 67 60 78 S6 30.06F MANCHESTER CLOUDY 67 58 72 S9 30.03F CONCORD CLOUDY 65 58 78 S12 30.03F LACONIA CLOUDY 63 56 78 S9 30.02F PLYMOUTH CLOUDY 59 54 84 N7 30.00F BERLIN CLOUDY 58 53 84 S10G18 29.94F WHITEFIELD CLOUDY 64 56 75 VRB6 29.93F JAFFREY CLOUDY 64 59 83 S10 30.06F KEENE CLOUDY N/A N/A N/A S10 30.03F LEBANON CLOUDY 65 57 75 S16G24 29.97F MT WASHINGTON DRZL/FOG 45 45 100 SW45G62 N/A VSB 0 $$ VTZ005-007-008-212200- VERMONT CITY SKY/WX TMP DP RH WIND PRES REMARKS ST JOHNSBURY N/A 60 56 86 MISG 29.90F MONTPELIER CLOUDY 61 60 97 S17G23 29.94F BURLINGTON CLOUDY 69 60 73 S23G37 29.80F $$ MAZ007-012-024-CTZ003-RIZ002-NYZ038-NYZ072-212200- SOUTHERN NEW ENGLAND AND NY CITY SKY/WX TMP DP RH WIND PRES REMARKS BOSTON CLOUDY 68 56 65 S17 30.07F WORCESTER CLOUDY 63 57 81 S18G24 30.09F NANTUCKET FAIR 66 59 78 S12 30.15F PROVIDENCE PTSUNNY 67 57 70 S14 30.12F HARTFORD CLOUDY 68 59 73 S15 30.07F ALBANY PTSUNNY 71 61 70 S16G28 29.96F NEW YORK CITY CLOUDY 74 64 71 S16G23 30.07F $$ ANZ081-ANZ082-ANZ150-NHZ014-MEZ023>029-212200- COASTAL MARINE OBSERVATIONS STATION/POSITION TIME TEMP WIND PRES WAVE AIR SEA DIR/SP/G HT/PER (UTC) (F) (DEG/KT/KT) (MB) (FT/S) MOUNT DESERT ROC 2100 60 150/ 22/ 24 1019.5F MATINICUS ROCK 2000 61 180/ 21/ 22 1019.5F ISLE OF SHOALS 2000 63 160/ 27/ 30 1018.1F JEFFREYS LEDGE 2036 64 N/A 5/11 $$ .............KEY.............. WCI - WIND CHILL TC - TEMPERATURE IN CELSIUS VSB - VISIBILITY IN MILES HX - HEAT INDEX FAIR- INDICATES FEW OR NO CLOUDS BELOW 12,000 FT, WITH NO SIGNIFICANT WEATHER AND/OR OBSTRUCTIONS TO VISIBILITY.

USA.gov is the U.S. government's official web portal to all federal, state and local government web resources and services.